Simultaneous Nadir Overpasses (SNOs) Predictions

Prediction of SNOs between NOAA-20 and METOP-C Satellite Orbit:

Table of predicted SNOs for the next 14.0 days since TLE Epoch: 10/18/2019
Index Date (NOAA-20) Time (NOAA-20) Lat,Lon (NOAA-20) SZA (NOAA-20 ) Date (METOP-C) Time (METOP-C) Lat,Lon (METOP-C) SZA (METOP-C ) Distance(km) Time Diff (sec)
1 10/26/2019 20:49:28 73.48,-142.21 86.04 10/26/2019 20:50:34 73.43,-139.23 85.92 94.50 66
2 10/26/2019 21:40:11 -73.42, 25.24 94.02 10/26/2019 21:41:18 -73.35, 27.91 94.15 85.40 67
3 10/26/2019 22:30:52 73.19,-166.92 85.75 10/26/2019 22:32:01 73.16,-165.18 85.68 56.23 69
4 10/26/2019 23:21:35 -73.13, 0.52 94.31 10/26/2019 23:22:45 -73.08, 1.97 94.39 47.30 70
5 10/27/2019 00:12:16 72.89, 168.35 85.46 10/27/2019 00:13:29 72.83, 168.79 85.39 15.72 73
6 10/27/2019 01:02:59 -72.83, -24.22 94.59 10/27/2019 01:04:12 -72.80, -23.95 94.63 9.41 73
7 10/27/2019 01:53:43 72.74, 143.28 85.33 10/27/2019 01:54:52 72.76, 143.30 85.34 2.30 69
8 10/27/2019 02:44:27 -72.73, -49.39 94.67 10/27/2019 02:45:35 -72.73, -49.44 94.68 1.58 68
9 10/27/2019 03:35:13 72.74, 117.90 85.36 10/27/2019 03:36:14 72.74, 117.91 85.34 0.87 61
10 10/27/2019 04:25:57 -72.74, -74.78 94.64 10/27/2019 04:26:56 -72.76, -74.72 94.63 2.97 59
11 10/27/2019 05:16:42 72.70, 92.62 85.33 10/27/2019 05:17:36 72.72, 92.53 85.35 3.60 54
12 10/27/2019 06:07:27 -72.74,-100.16 94.62 10/27/2019 06:08:18 -72.74,-100.11 94.63 1.93 51
13 10/27/2019 06:58:12 72.70, 67.23 85.36 10/27/2019 06:58:58 72.69, 67.14 85.35 3.18 46
14 10/27/2019 07:48:56 -72.70,-125.44 94.64 10/27/2019 07:49:40 -72.72,-125.49 94.62 2.65 44
15 10/27/2019 08:39:42 72.71, 41.85 85.39 10/27/2019 08:40:19 72.72, 41.86 85.40 1.82 37
16 10/27/2019 09:30:26 -72.70,-150.82 94.61 10/27/2019 09:31:02 -72.69,-150.88 94.62 1.92 36
17 10/27/2019 10:21:12 72.71, 16.47 85.42 10/27/2019 10:21:41 72.70, 16.48 85.40 1.21 29
18 10/27/2019 11:11:56 -72.71,-176.21 94.58 10/27/2019 11:12:23 -72.72,-176.16 94.57 2.49 27
19 10/27/2019 12:02:41 72.67, -8.81 85.39 10/27/2019 12:03:03 72.68, -8.91 85.41 3.52 22
20 10/27/2019 12:53:25 -72.71, 158.41 94.55 10/27/2019 12:53:44 -72.70, 158.46 94.57 1.98 19
21 10/27/2019 13:44:10 72.67, -34.20 85.42 10/27/2019 13:44:24 72.66, -34.29 85.41 3.48 14
22 10/27/2019 14:34:54 -72.66, 133.13 94.58 10/27/2019 14:35:06 -72.68, 133.07 94.56 2.44 12
23 10/27/2019 15:25:40 72.67, -59.58 85.45 10/27/2019 15:25:45 72.69, -59.57 85.46 1.34 5
24 10/27/2019 16:16:24 -72.67, 107.75 94.55 10/27/2019 16:16:28 -72.66, 107.69 94.56 2.31 4
25 10/27/2019 17:07:10 72.68, -84.96 85.48 10/27/2019 17:07:07 72.66, -84.96 85.46 1.63 3
26 10/27/2019 17:57:54 -72.67, 82.36 94.52 10/27/2019 17:57:49 -72.69, 82.41 94.51 2.04 5
27 10/27/2019 18:48:39 72.63,-110.24 85.45 10/27/2019 18:48:29 72.64,-110.34 85.47 3.48 10
28 10/27/2019 19:39:24 -72.68, 56.98 94.49 10/27/2019 19:39:11 -72.66, 57.02 94.51 2.16 13
29 10/27/2019 20:30:09 72.64,-135.63 85.48 10/27/2019 20:29:51 72.62,-135.73 85.47 3.81 18
30 10/27/2019 21:20:53 -72.63, 31.70 94.52 10/27/2019 21:20:33 -72.64, 31.64 94.51 2.30 20
31 10/27/2019 22:11:39 72.64,-161.01 85.51 10/27/2019 22:11:12 72.65,-161.01 85.52 0.87 27
32 10/27/2019 23:02:23 -72.64, 6.32 94.49 10/27/2019 23:01:55 -72.62, 6.25 94.50 2.73 28
33 10/27/2019 23:53:09 72.65, 173.61 85.54 10/27/2019 23:52:34 72.63, 173.61 85.52 2.08 35
34 10/28/2019 00:43:53 -72.64, -19.07 94.46 10/28/2019 00:43:16 -72.65, -19.03 94.45 1.63 37
35 10/28/2019 01:34:38 72.60, 148.33 85.51 10/28/2019 01:33:56 72.61, 148.22 85.52 3.48 42
36 10/28/2019 02:25:23 -72.64, -44.45 94.43 10/28/2019 02:24:38 -72.63, -44.41 94.45 2.44 45
37 10/28/2019 03:16:08 72.60, 122.94 85.54 10/28/2019 03:15:17 72.63, 122.94 85.58 3.35 51
38 10/28/2019 04:06:52 -72.60, -69.73 94.46 10/28/2019 04:06:00 -72.60, -69.80 94.45 2.24 52
39 10/28/2019 04:57:38 72.61, 97.56 85.57 10/28/2019 04:56:39 72.61, 97.56 85.58 0.41 59
40 10/28/2019 05:48:22 -72.60, -95.11 94.43 10/28/2019 05:47:22 -72.58, -95.18 94.44 3.16 60
41 10/28/2019 06:39:08 72.61, 72.17 85.60 10/28/2019 06:38:01 72.59, 72.17 85.58 2.54 67
42 10/28/2019 07:29:52 -72.61,-120.50 94.40 10/28/2019 07:28:43 -72.61,-120.46 94.39 1.29 69
43 10/28/2019 08:20:37 72.57, 46.89 85.57 10/28/2019 08:19:23 72.57, 46.79 85.58 3.53 74
44 10/28/2019 09:11:20 -72.51,-145.68 94.48 10/28/2019 09:10:06 -72.54,-145.95 94.44 9.60 74
45 10/28/2019 10:02:01 72.27, 22.12 85.28 10/28/2019 10:00:50 72.29, 20.90 85.34 41.52 71
46 10/28/2019 10:52:44 -72.21,-170.46 94.77 10/28/2019 10:51:33 -72.26,-171.84 94.68 47.20 71
47 10/28/2019 11:43:25 71.96, -2.67 84.99 10/28/2019 11:42:18 71.96, -5.07 85.05 82.77 67
48 10/28/2019 12:34:08 -71.91, 164.75 95.06 10/28/2019 12:33:01 -71.93, 162.20 94.97 88.09 67




NCC Satellite Simultaneous Nadir Overpasses (SNOs) Prediction Service
